Temp
74 73 73 73 73 73 73 73 73 72 72 72 72 71 70 69 80 79 80 78 77 75 76 76 76 77 77 76 77 76 76 76 75
72 72 72 72 72 72 72 72 72 71 71 71 71 70 68 75 79 79 78 78 73 75 76 76 77 76 77 76 76 77 76 76 76
70 70 71 71 71 71 71 71 70 70 69 69 69 68 67 74 77 77 77 72 72 75 76 77 77 77 76 76 76 76 75 75 75
68 68 69 69 69 69 69 69 69 68 68 67 67 66 65 74 76 76 78 69 73 75 76 76 76 77 76 75 75 75 74 74 74
67 69 66 67 67 67 68 67 67 66 66 66 65 65 66 76 75 76 75 69 73 74 75 74 74 74 73 72 72 73 73 73 73
73 63 64 65 65 66 66 66 65 65 67 65 65 64 75 76 75 76 67 70 72 74 74 74 74 74 74 73 73 72 72 71 71
70 65 62 63 63 65 65 65 66 69 74 74 70 75 76 75 74 75 66 69 72 73 73 74 74 74 74 73 73 73 72 71 71
74 73 72 72 66 72 71 72 72 72 73 73 74 74 75 76 75 70 65 69 71 72 72 72 73 73 73 73 72 72 72 72 72
73 73 71 71 71 71 71 72 72 72 72 73 73 73 74 74 75 70 64 67 69 71 72 72 73 73 72 72 72 71 71 71 71
72 71 72 71 71 71 70 71 71 71 71 72 71 71 73 73 74 75 62 64 67 70 71 72 72 72 72 72 71 70 70 70 70
70 71 70 70 70 71 71 70 70 70 70 71 70 71 72 73 72 73 73 63 64 68 70 71 71 70 71 69 69 69 69 69 69
68 70 69 69 70 70 70 70 71 70 70 69 70 70 71 71 71 72 72 72 63 66 68 69 70 70 70 71 70 70 69 69 69
69 69 69 69 69 69 69 68 68 68 68 69 69 70 70 70 70 71 71 71 72 67 64 66 67 68 70 70 70 70 69 68 68
70 69 69 69 68 68 67 67 66 65 66 67 68 69 69 68 70 69 69 69 69 71 61 62 63 65 67 68 69 69 68 67 67
68 70 69 68 68 68 67 66 67 65 65 66 67 68 68 68 67 68 69 68 68 69 69 70 66 63 64 65 66 67 67 67 67
68 69 68 68 67 66 66 65 64 65 65 65 65 66 66 66 67 67 68 67 67 67 68 70 70 69 63 62 63 64 66 66 66
67 67 67 67 66 66 65 64 63 65 64 61 61 61 63 67 65 67 66 66 67 67 67 67 64 66 67 62 60 61 63 64 66
64 65 66 66 65 65 64 63 61 61 64 63 60 59 58 60 65 64 66 65 67 67 67 67 66 66 66 65 63 59 60 63 64
64 63 64 64 65 64 64 65 63 62 60 64 64 62 61 56 57 65 64 65 65 65 66 67 62 65 66 60 57 58 59 62 63
63 63 63 63 64 63 62 62 62 63 61 60 60 61 61 61 57 55 60 64 65 66 65 64 60 62 62 63 60 57 59 60 62
MSLP
1020.22 1020.21 1020.14 1020.06 1019.98 1019.84 1019.66 1019.49 1019.36 1019.21 1019.04 1018.83 1018.62 1018.50 1018.35 1017.97 1017.06 1016.93 1016.64 1016.70 1016.37 1016.55 1016.27 1016.11 1015.94 1015.73 1015.64 1015.68 1015.60 1015.68 1015.74 1015.82 1015.85
1020.50 1020.55 1020.46 1020.31 1020.22 1020.05 1019.82 1019.64 1019.51 1019.41 1019.22 1019.01 1018.80 1018.61 1018.43 1017.81 1017.08 1016.88 1016.72 1016.51 1016.77 1016.48 1016.16 1015.94 1015.78 1015.63 1015.48 1015.38 1015.30 1015.22 1015.27 1015.36 1015.44
1020.82 1020.79 1020.78 1020.59 1020.47 1020.29 1020.06 1019.85 1019.70 1019.53 1019.39 1019.16 1018.94 1018.76 1018.52 1017.63 1017.16 1017.02 1016.77 1017.00 1016.89 1016.41 1016.02 1015.73 1015.50 1015.37 1015.29 1015.15 1014.97 1014.84 1014.92 1015.11 1015.08
1021.11 1021.00 1020.97 1020.89 1020.74 1020.54 1020.29 1020.01 1019.81 1019.67 1019.53 1019.29 1019.09 1018.83 1018.57 1017.69 1017.33 1017.17 1016.75 1017.21 1016.80 1016.33 1015.97 1015.82 1015.50 1015.14 1015.10 1015.08 1014.88 1014.65 1014.77 1014.83 1015.00
1021.40 1021.09 1021.19 1021.07 1020.92 1020.63 1020.40 1020.18 1019.98 1019.80 1019.61 1019.41 1019.18 1018.85 1018.34 1017.51 1017.32 1017.09 1017.16 1017.35 1016.84 1016.40 1016.06 1015.94 1015.67 1015.47 1015.49 1015.36 1015.20 1015.05 1014.93 1014.89 1014.94
1021.18 1021.67 1021.48 1021.30 1021.07 1020.78 1020.52 1020.34 1020.14 1019.81 1019.37 1019.33 1019.15 1018.64 1017.88 1017.55 1017.44 1017.28 1017.78 1017.40 1016.85 1016.48 1016.21 1016.03 1015.94 1015.77 1015.65 1015.55 1015.51 1015.39 1015.29 1015.27 1015.25
1021.54 1021.70 1021.65 1021.40 1021.17 1020.88 1020.62 1020.43 1019.99 1019.38 1018.94 1018.63 1018.52 1018.10 1017.78 1017.64 1017.57 1017.50 1018.02 1017.54 1017.01 1016.63 1016.36 1016.19 1016.04 1015.94 1015.80 1015.69 1015.61 1015.49 1015.38 1015.37 1015.35
1021.24 1021.14 1021.06 1020.88 1020.91 1020.40 1020.20 1019.84 1019.57 1019.45 1019.09 1018.74 1018.39 1018.18 1017.94 1017.74 1017.67 1018.01 1018.21 1017.69 1017.22 1016.85 1016.58 1016.38 1016.16 1016.01 1015.88 1015.86 1015.75 1015.60 1015.45 1015.32 1015.26
1021.21 1021.14 1021.06 1020.90 1020.78 1020.57 1020.38 1019.92 1019.66 1019.46 1019.18 1018.86 1018.57 1018.30 1018.12 1017.94 1017.82 1017.99 1018.39 1018.01 1017.55 1017.05 1016.59 1016.33 1016.14 1016.05 1016.08 1015.97 1015.86 1015.79 1015.61 1015.44 1015.34
1021.36 1021.30 1021.14 1021.07 1020.91 1020.74 1020.40 1020.08 1019.72 1019.46 1019.16 1018.92 1018.78 1018.50 1018.27 1018.10 1017.93 1017.78 1018.47 1018.30 1017.87 1017.32 1016.80 1016.56 1016.42 1016.29 1016.10 1016.00 1015.94 1015.94 1015.90 1015.78 1015.59
1021.71 1021.44 1021.36 1021.16 1021.09 1020.87 1020.55 1020.25 1019.91 1019.52 1019.31 1019.02 1019.00 1018.70 1018.59 1018.38 1018.28 1018.08 1017.96 1018.46 1018.28 1017.79 1017.32 1017.01 1016.80 1016.55 1016.24 1016.42 1016.35 1016.36 1016.27 1016.09 1015.84
1021.95 1021.68 1021.44 1021.45 1021.30 1021.00 1020.65 1020.35 1019.95 1019.68 1019.46 1019.32 1019.20 1019.00 1018.81 1018.69 1018.63 1018.46 1018.23 1018.06 1018.47 1018.23 1017.82 1017.53 1017.20 1016.91 1016.74 1016.56 1016.53 1016.54 1016.57 1016.37 1016.05
1021.96 1021.71 1021.56 1021.64 1021.41 1021.13 1020.81 1020.58 1020.24 1019.97 1019.76 1019.53 1019.46 1019.24 1019.20 1018.99 1018.89 1018.81 1018.61 1018.42 1018.12 1018.26 1018.53 1018.31 1017.98 1017.65 1017.30 1017.07 1016.89 1016.93 1016.86 1016.63 1016.40
1021.96 1021.82 1021.75 1021.62 1021.42 1021.20 1021.00 1020.74 1020.58 1020.27 1020.05 1019.90 1019.77 1019.58 1019.42 1019.26 1019.12 1019.10 1019.01 1019.00 1018.77 1018.36 1018.90 1018.82 1018.64 1018.33 1018.01 1017.74 1017.52 1017.29 1017.14 1017.03 1016.72
1022.05 1021.89 1021.77 1021.70 1021.36 1021.19 1021.19 1021.01 1020.78 1020.66 1020.46 1020.25 1019.98 1019.85 1019.73 1019.55 1019.46 1019.21 1019.10 1019.17 1019.05 1018.81 1018.74 1018.44 1018.76 1018.75 1018.54 1018.23 1018.20 1017.92 1017.55 1017.39 1017.08
1021.96 1021.82 1021.78 1021.70 1021.50 1021.50 1021.46 1021.25 1021.01 1020.73 1020.68 1020.08 1019.80 1019.80 1019.87 1019.70 1019.66 1019.40 1019.22 1019.23 1019.17 1019.21 1018.95 1018.70 1018.51 1018.50 1018.82 1018.72 1018.61 1018.44 1018.12 1017.72 1017.39
1021.91 1021.83 1021.73 1021.68 1021.60 1021.56 1021.52 1021.45 1021.13 1020.88 1020.99 1020.50 1020.10 1019.33 1019.35 1019.41 1019.77 1019.69 1019.46 1019.33 1019.24 1019.19 1019.16 1019.00 1019.26 1019.05 1018.85 1019.01 1018.96 1018.87 1018.59 1018.15 1017.53
1022.03 1021.89 1021.77 1021.70 1021.72 1021.57 1021.61 1021.61 1021.58 1021.14 1020.99 1020.97 1020.60 1019.77 1019.34 1019.38 1019.38 1019.50 1019.45 1019.39 1019.16 1019.13 1019.02 1018.94 1019.14 1019.12 1019.06 1018.92 1018.90 1019.10 1018.86 1018.38 1017.85
1021.97 1021.95 1021.84 1021.74 1021.66 1021.65 1021.62 1021.58 1021.61 1021.46 1021.04 1020.88 1020.91 1020.90 1020.66 1020.02 1019.19 1019.26 1019.30 1019.30 1019.17 1019.22 1018.92 1018.83 1019.34 1019.14 1019.11 1019.30 1019.52 1019.33 1018.95 1018.49 1018.00
1021.88 1021.90 1021.84 1021.72 1021.67 1021.60 1021.63 1021.60 1021.57 1021.51 1021.39 1021.18 1021.03 1020.85 1020.66 1020.62 1020.18 1019.42 1019.08 1019.10 1019.26 1019.12 1018.98 1018.97 1019.45 1019.47 1019.57 1019.27 1019.29 1019.33 1018.96 1018.60 1018.17
Wind_Speed
9 9 9 9 10 10 10 10 11 11 11 11 11 12 12 14 7 7 7 8 7 11 12 12 12 13 11 13 14 13 12 11 10
10 10 9 9 10 10 10 10 10 11 11 11 12 12 12 9 7 7 7 7 10 12 12 13 14 14 13 12 16 16 15 13 12
10 10 9 10 9 9 9 10 10 10 11 11 11 11 11 9 7 7 6 8 11 11 12 13 14 13 14 14 13 16 14 13 13
10 10 10 10 10 10 10 10 10 10 10 10 10 10 9 8 5 7 5 12 12 11 11 12 15 12 10 8 10 10 8 8 9
9 7 11 11 10 10 10 10 10 9 9 9 10 10 9 7 6 5 6 13 12 12 11 9 12 10 8 9 9 9 8 6 7
6 9 9 9 9 9 9 10 9 9 1 4 8 11 5 6 5 4 12 12 12 11 11 8 8 8 8 7 7 7 7 7 11
5 4 5 5 7 6 7 7 6 6 6 5 3 5 6 5 5 5 11 12 12 12 10 10 7 7 7 7 8 8 6 5 5
4 3 4 5 4 5 6 5 6 8 7 6 5 6 6 4 4 8 11 11 11 10 9 9 9 8 8 7 8 8 8 7 7
4 4 4 4 5 6 6 5 7 8 8 7 7 6 5 4 3 7 10 11 12 11 10 9 8 8 7 8 9 8 6 5 6
4 4 4 4 5 5 6 6 7 8 8 6 6 5 6 6 4 4 8 10 11 11 11 10 10 9 8 8 6 8 8 9 8
4 4 4 5 5 5 5 6 6 6 6 7 5 5 5 6 6 5 5 8 11 12 12 12 12 11 9 12 13 13 13 15 15
4 4 4 5 5 6 5 6 6 6 5 6 5 4 6 5 7 6 6 4 9 14 15 15 16 16 15 15 16 15 15 15 16
3 3 4 4 4 5 5 6 6 6 5 4 3 3 4 6 6 6 6 5 5 8 14 15 16 16 16 15 15 15 15 16 16
3 3 3 5 4 5 5 5 6 6 4 3 2 3 3 5 4 6 7 7 6 4 9 12 14 15 16 17 16 16 16 16 16
2 2 3 4 4 4 5 6 5 5 5 2 1 1 2 3 4 5 5 6 6 5 5 4 7 12 15 15 16 17 15 16 16
3 3 3 3 4 5 5 5 6 5 6 3 3 3 2 3 2 4 4 5 5 5 4 3 4 4 8 12 13 15 16 17 16
4 4 3 3 3 3 4 5 4 3 5 4 3 2 4 1 2 2 4 6 3 4 4 3 4 4 4 6 10 13 14 16 17
3 3 3 3 3 3 3 4 5 4 3 5 4 3 3 5 1 1 2 5 4 4 4 2 2 3 4 4 5 12 14 16 16
2 2 3 3 3 4 3 2 3 3 3 1 2 3 4 4 3 1 3 4 4 5 4 3 1 2 3 4 7 11 13 16 16
0 2 2 3 3 4 4 4 4 3 3 3 3 3 3 3 3 6 5 6 1 4 4 2 1 2 5 5 7 11 13 14 15
Wind_Direction
52 44 37 33 25 19 18 18 14 12 7 359 357 356 353 316 327 311 311 291 322 304 303 303 300 297 285 266 254 247 250 248 248
54 42 35 31 24 19 18 15 14 5 359 353 350 348 344 326 323 321 318 306 320 299 296 295 292 292 294 289 266 259 244 238 240
51 41 30 32 28 26 21 16 9 3 356 353 351 348 344 311 317 326 317 12 319 306 309 310 310 290 287 290 294 263 262 252 250
50 47 37 33 31 23 17 17 16 9 1 0 356 347 332 311 337 318 316 0 325 321 319 340 314 301 311 329 320 308 299 293 292
50 38 43 33 29 30 26 23 19 5 5 2 351 334 277 350 342 338 13 333 326 324 328 353 8 16 11 27 34 40 33 15 16
51 52 41 35 32 27 22 17 7 344 315 358 342 293 359 354 357 348 0 337 329 323 317 338 355 6 8 14 14 3 357 346 349
51 68 42 48 13 24 14 7 347 330 353 355 266 356 351 1 1 29 358 348 346 345 339 329 330 335 343 352 357 354 337 308 314
43 35 25 14 9 13 359 4 14 360 354 350 349 350 0 357 11 44 3 357 356 353 344 335 330 326 328 355 339 334 328 327 329
33 29 21 17 13 7 4 359 3 357 356 356 355 4 9 7 14 73 17 9 5 1 4 6 5 14 5 337 341 346 349 348 341
25 24 24 17 5 6 0 358 358 356 360 6 1 15 27 31 26 35 45 16 13 9 20 34 22 3 349 347 356 29 34 36 28
18 23 21 19 9 1 355 1 358 359 4 13 30 42 38 31 29 23 62 38 23 17 20 23 18 10 20 55 57 47 37 28 26
20 15 20 15 6 359 2 5 3 5 12 36 40 40 38 36 30 19 21 49 70 33 36 33 33 41 51 56 51 43 29 23 27
21 11 23 12 6 6 5 11 3 9 14 22 37 48 41 33 29 27 21 25 23 78 41 41 41 36 33 35 39 36 27 21 17
356 6 12 3 12 16 6 7 6 6 5 9 35 40 44 44 38 29 28 30 20 23 84 63 45 45 40 32 27 25 22 15 12
309 327 348 356 1 16 4 2 7 6 352 313 304 32 46 38 31 28 37 32 26 29 27 40 70 50 47 40 26 20 16 13 7
284 300 311 337 352 5 1 353 358 8 353 297 230 224 228 7 13 23 30 28 31 21 16 27 10 71 79 45 32 19 9 4 360
296 290 296 300 308 344 3 9 346 7 9 350 278 295 176 160 21 10 24 15 7 11 343 14 7 359 14 35 37 12 358 349 345
289 284 286 287 284 307 337 355 360 347 13 12 346 308 350 329 140 302 327 358 351 345 331 303 324 343 23 350 33 7 350 343 340
284 297 294 284 271 273 288 301 322 319 345 317 15 343 328 336 323 180 326 316 311 328 325 301 39 346 17 34 44 354 351 346 342
52 327 299 281 267 266 268 265 272 299 310 325 330 324 314 283 302 307 331 329 300 317 314 43 135 337 13 356 22 351 350 346 342